Location: ????????
(55.4000°N, 39.1167°E)
Time: 03:07:14
(UTC+00:00)

NOSS 2-3 (C) - Pass Details

Date: 19 May 2025
Orbit: 469 x 1713 km, 63.3° (Epoch: 15 June)

Event Time Altitude Azimuth Distance (km) Brightness Sun altitude
Rises 18:25:21 0° 244° (WSW) 2,513 6.9 -6.0°
Reaches altitude 10° 18:27:22 10° 249° (WSW) 1,668 6.0 -6.2°
Maximum altitude 18:30:55 58° 329° (NNW) 627 4.0 -6.6°
Drops below altitude 10° 18:35:12 10° 49° (NE) 1,999 6.2 -6.9°
Sets 18:37:49 0° 54° (NE) 3,078 7.1 -7.2°
